Flag for India Weather past 2 weeks in Varanasi, Uttar Pradesh, India

Now
86 °F

Passing clouds.


Feels Like: 102 °F
Forecast: 82 / 96 °F
Wind: No wind

Location: Varanasi / Babatpur

Current Time: Jul 2, 2015 at 2:40:26 AM

Latest Report: Jul 2, 2015 at 12:00 AM


Visibility: 2 mi

Pressure: 29.65 "Hg

Humidity: 84%

Dew point: 81 °F

Location of VaranasiLocation

Historic Weather in Varanasi — Graph

°F

Varanasi temperature yesterday

Maximum temperature yesterday: 97 °F (at 2:00 PM)
Minimum temperature yesterday: 81 °F (at 6:00 AM)
Average temperature yesterday: 89 °F

Past Weeks' High & Low Weather Summary

 TemperatureHumidityPressure
High106 °F (Jun 17, 2:00 PM)100% (Jun 28, 1:00 PM)29.68 "Hg (Jun 28, 1:00 PM)
Low75 °F (Jun 29, 12:00 AM)28% (Jun 17, 4:00 PM)29.30 "Hg (Jun 22, 5:00 PM)
Average91 °F62%29.48 "Hg
* Reported Midnight between Jun 16 and Jun 17 — Midnight between Jul 1 and Jul 2, Varanasi, Weather by CustomWeather, © 2015

Note: Actual official high and low records may vary slightly from our data, if they occured in-between our weather recording intervals... More about our weather records

Advertising

Varanasi weather history for previous 24 hours

 ConditionsComfort  
Time TempWeatherWind HumidityBarometerVisibility
12:00 AM
Thu, Jul 2
86 °FPassing clouds.No wind84%29.65 "Hg2 mi
11:00 PM
Wed, Jul 1
86 °FPassing clouds.No wind84%29.65 "Hg2 mi
10:00 PM88 °FPassing clouds.No wind79%29.65 "Hg2 mi
9:00 PM88 °FPassing clouds.No wind79%29.62 "Hg2 mi
7:00 PM90 °FPartly sunny.No wind71%29.59 "Hg3 mi
6:00 PM91 °FScattered clouds.No wind67%29.56 "Hg3 mi
5:00 PM97 °FScattered clouds.2 mph53%29.56 "Hg4 mi
4:00 PM97 °FScattered clouds.5 mph53%29.56 "Hg4 mi
3:00 PM97 °FScattered clouds.7 mph53%29.56 "Hg4 mi
2:00 PM97 °FBroken clouds.6 mph53%29.59 "Hg4 mi
1:00 PM93 °FBroken clouds.7 mph59%29.65 "Hg4 mi
12:00 PM91 °FScattered clouds.7 mph63%29.65 "Hg3 mi
11:00 AM90 °FScattered clouds.7 mph67%29.68 "Hg3 mi
9:00 AM84 °FBroken clouds.3 mph79%29.68 "Hg2 mi
8:00 AM81 °FLight rain. Broken clouds.5 mph94%29.65 "Hg2 mi
7:00 AM81 °FBroken clouds.6 mph89%29.65 "Hg2 mi
6:00 AM81 °FBroken clouds.3 mph89%29.62 "Hg2 mi
4:00 AM82 °FPassing clouds.No wind89%29.59 "Hg2 mi
Weather by CustomWeather, © 2015

See weather overviewHow to use our weather pages